Time,TemperatureF,DewpointF,PressureIn,WindDirection,WindDirectionDegrees,WindSpeedMPH,WindSpeedGustMPH,Humidity,HourlyPrecipIn,Conditions,Clouds,dailyrainin,SoftwareType,DateUTC
2013-07-01 00:01:00,58.0,53.0,29.85,NW,313,0.0,0.0,82,0.00,,,0.00,,2013-07-01 07:01:00,
2013-07-01 00:11:00,57.0,52.0,29.85,NW,313,0.0,1.0,83,0.00,,,0.00,,2013-07-01 07:11:00,
2013-07-01 00:21:00,57.0,52.0,29.85,NW,313,0.0,1.0,84,0.00,,,0.00,,2013-07-01 07:21:00,
2013-07-01 00:33:00,57.0,52.0,29.85,NW,313,0.0,0.0,84,0.00,,,0.00,,2013-07-01 07:33:00,
2013-07-01 00:43:00,56.0,51.0,29.85,NW,313,0.0,1.0,84,0.00,,,0.00,,2013-07-01 07:43:00,
2013-07-01 00:53:00,56.0,52.0,29.85,NW,313,0.0,1.0,85,0.00,,,0.00,,2013-07-01 07:53:00,
2013-07-01 01:01:00,56.0,52.0,29.85,NW,313,0.0,2.0,85,0.00,,,0.00,,2013-07-01 08:01:00,
2013-07-01 01:11:00,56.0,52.0,29.85,NW,313,0.0,1.0,85,0.00,,,0.00,,2013-07-01 08:11:00,
2013-07-01 01:22:00,56.0,52.0,29.85,NW,313,0.0,2.0,86,0.00,,,0.00,,2013-07-01 08:22:00,
2013-07-01 01:32:00,56.0,52.0,29.86,NW,313,0.0,1.0,86,0.00,,,0.00,,2013-07-01 08:32:00,
2013-07-01 01:42:00,55.0,51.0,29.86,NW,313,0.0,1.0,86,0.00,,,0.00,,2013-07-01 08:42:00,
2013-07-01 01:52:00,55.0,51.0,29.86,NW,313,0.0,2.0,86,0.00,,,0.00,,2013-07-01 08:52:00,
2013-07-01 02:01:00,55.0,51.0,29.85,NW,313,0.0,2.0,86,0.00,,,0.00,,2013-07-01 09:01:00,
2013-07-01 02:11:00,55.0,51.0,29.85,NW,313,0.0,2.0,86,0.00,,,0.00,,2013-07-01 09:11:00,
2013-07-01 02:22:00,55.0,51.0,29.85,NW,313,0.0,1.0,87,0.00,,,0.00,,2013-07-01 09:22:00,
2013-07-01 02:33:00,55.0,51.0,29.85,NW,313,0.0,3.0,87,0.00,,,0.00,,2013-07-01 09:33:00,
2013-07-01 02:43:00,55.0,51.0,29.85,NW,313,1.0,2.0,87,0.00,,,0.00,,2013-07-01 09:43:00,
2013-07-01 02:53:00,55.0,51.0,29.85,NW,313,1.0,2.0,87,0.00,,,0.00,,2013-07-01 09:53:00,
2013-07-01 03:03:00,55.0,52.0,29.85,NW,313,0.0,2.0,88,0.00,,,0.00,,2013-07-01 10:03:00,
2013-07-01 03:11:00,55.0,51.0,29.85,NW,313,0.0,2.0,87,0.00,,,0.00,,2013-07-01 10:11:00,
2013-07-01 03:22:00,55.0,51.0,29.85,NW,313,0.0,1.0,87,0.00,,,0.00,,2013-07-01 10:22:00,
2013-07-01 03:33:00,55.0,51.0,29.85,NW,313,0.0,3.0,87,0.00,,,0.00,,2013-07-01 10:33:00,
2013-07-01 03:42:00,55.0,51.0,29.86,NW,313,0.0,2.0,87,0.00,,,0.00,,2013-07-01 10:42:00,
2013-07-01 03:52:00,56.0,52.0,29.86,NW,313,2.0,2.0,88,0.00,,,0.00,,2013-07-01 10:52:00,
2013-07-01 04:02:00,56.0,52.0,29.86,NW,313,0.0,1.0,87,0.00,,,0.00,,2013-07-01 11:02:00,
2013-07-01 04:11:00,56.0,52.0,29.85,NW,313,0.0,0.0,87,0.00,,,0.00,,2013-07-01 11:11:00,
2013-07-01 04:22:00,55.0,51.0,29.85,NW,313,0.0,0.0,87,0.00,,,0.00,,2013-07-01 11:22:00,
2013-07-01 04:33:00,55.0,51.0,29.86,NW,313,0.0,0.0,87,0.00,,,0.00,,2013-07-01 11:33:00,
2013-07-01 04:43:00,55.0,52.0,29.86,NW,313,0.0,0.0,88,0.00,,,0.00,,2013-07-01 11:43:00,
2013-07-01 04:52:00,56.0,52.0,29.86,NW,313,0.0,0.0,88,0.00,,,0.00,,2013-07-01 11:52:00,
2013-07-01 05:01:00,56.0,52.0,29.86,NW,313,0.0,0.0,88,0.00,,,0.00,,2013-07-01 12:01:00,
2013-07-01 05:11:00,56.0,52.0,29.86,NW,313,0.0,0.0,88,0.00,,,0.00,,2013-07-01 12:11:00,
2013-07-01 05:21:00,56.0,52.0,29.86,NW,313,0.0,0.0,88,0.00,,,0.00,,2013-07-01 12:21:00,
2013-07-01 05:33:00,56.0,52.0,29.85,NW,313,0.0,0.0,88,0.00,,,0.00,,2013-07-01 12:33:00,
2013-07-01 05:43:00,56.0,52.0,29.85,NW,313,0.0,0.0,88,0.00,,,0.00,,2013-07-01 12:43:00,
2013-07-01 05:53:00,56.0,52.0,29.85,NW,313,0.0,0.0,88,0.00,,,0.00,,2013-07-01 12:53:00,
2013-07-01 06:01:00,56.0,52.0,29.85,NW,313,0.0,0.0,88,0.00,,,0.00,,2013-07-01 13:01:00,
2013-07-01 06:12:00,56.0,52.0,29.85,NW,313,0.0,0.0,88,0.00,,,0.00,,2013-07-01 13:12:00,
2013-07-01 06:23:00,56.0,52.0,29.85,NW,313,0.0,0.0,87,0.00,,,0.00,,2013-07-01 13:23:00,
2013-07-01 06:33:00,55.0,51.0,29.85,NW,313,0.0,0.0,87,0.00,,,0.00,,2013-07-01 13:33:00,
2013-07-01 06:43:00,55.0,51.0,29.85,NW,313,0.0,0.0,87,0.00,,,0.00,,2013-07-01 13:43:00,
2013-07-01 06:53:00,55.0,51.0,29.85,NW,313,0.0,0.0,87,0.00,,,0.00,,2013-07-01 13:53:00,
2013-07-01 07:01:00,55.0,52.0,29.85,NW,313,0.0,0.0,88,0.00,,,0.00,,2013-07-01 14:01:00,
2013-07-01 07:11:00,56.0,52.0,29.85,NW,313,0.0,0.0,88,0.00,,,0.00,,2013-07-01 14:11:00,
2013-07-01 07:34:00,57.0,53.0,29.85,NW,313,0.0,0.0,88,0.00,,,0.00,,2013-07-01 14:34:00,
2013-07-01 07:43:00,58.0,54.0,29.85,NW,313,0.0,0.0,87,0.00,,,0.00,,2013-07-01 14:43:00,
2013-07-01 07:52:00,59.0,55.0,29.86,NW,313,0.0,0.0,86,0.00,,,0.00,,2013-07-01 14:52:00,
2013-07-01 08:01:00,60.0,55.0,29.85,NW,313,0.0,0.0,85,0.00,,,0.00,,2013-07-01 15:01:00,
2013-07-01 08:11:00,61.0,56.0,29.85,NW,313,0.0,0.0,83,0.00,,,0.00,,2013-07-01 15:11:00,
2013-07-01 08:23:00,62.0,56.0,29.86,NW,313,0.0,0.0,82,0.00,,,0.00,,2013-07-01 15:23:00,
2013-07-01 08:33:00,63.0,57.0,29.86,NE,51,0.0,0.0,80,0.00,,,0.00,,2013-07-01 15:33:00,
2013-07-01 08:43:00,64.0,57.0,29.86,NE,52,0.0,0.0,79,0.00,,,0.00,,2013-07-01 15:43:00,
2013-07-01 08:52:00,65.0,58.0,29.86,NE,53,0.0,0.0,78,0.00,,,0.00,,2013-07-01 15:52:00,
2013-07-01 09:01:00,67.0,59.0,29.86,NE,53,0.0,0.0,75,0.00,,,0.00,,2013-07-01 16:01:00,
2013-07-01 09:11:00,68.0,59.0,29.86,NE,53,0.0,0.0,74,0.00,,,0.00,,2013-07-01 16:11:00,
2013-07-01 09:22:00,70.0,61.0,29.86,NE,54,0.0,0.0,72,0.00,,,0.00,,2013-07-01 16:22:00,
2013-07-01 09:33:00,72.0,61.0,29.86,NE,54,0.0,0.0,68,0.00,,,0.00,,2013-07-01 16:33:00,
2013-07-01 09:53:00,76.0,62.0,29.86,NE,54,0.0,0.0,61,0.00,,,0.00,,2013-07-01 16:53:00,
2013-07-01 14:43:00,93.0,63.0,29.88,NE,49,1.0,8.0,37,0.00,,,0.00,,2013-07-01 21:43:00,
2013-07-01 14:53:00,93.0,63.0,29.88,NE,38,3.0,7.0,37,0.00,,,0.00,,2013-07-01 21:53:00,
2013-07-01 15:01:00,93.0,64.0,29.88,South,178,1.0,7.0,38,0.00,,,0.00,,2013-07-01 22:01:00,
2013-07-01 15:11:00,93.0,63.0,29.88,East,96,2.0,8.0,37,0.00,,,0.00,,2013-07-01 22:11:00,
2013-07-01 15:23:00,94.0,61.0,29.88,WNW,298,1.0,7.0,34,0.00,,,0.00,,2013-07-01 22:23:00,
2013-07-01 15:32:00,94.0,61.0,29.87,WNW,295,2.0,5.0,34,0.00,,,0.00,,2013-07-01 22:32:00,
2013-07-01 17:43:00,89.0,60.0,29.87,NW,317,0.0,4.0,38,0.00,,,0.00,,2013-07-02 00:43:00,
2013-07-01 18:43:00,82.0,59.0,29.87,SW,219,0.0,4.0,45,0.00,,,0.00,,2013-07-02 01:43:00,
2013-07-01 18:53:00,81.0,59.0,29.87,NNE,14,1.0,6.0,47,0.00,,,0.00,,2013-07-02 01:53:00,
2013-07-01 19:01:00,80.0,59.0,29.87,NNW,328,0.0,1.0,48,0.00,,,0.00,,2013-07-02 02:01:00,
2013-07-01 19:11:00,80.0,60.0,29.87,NNW,328,0.0,1.0,50,0.00,,,0.00,,2013-07-02 02:11:00,
2013-07-01 19:33:00,78.0,58.0,29.87,NNW,344,1.0,2.0,50,0.00,,,0.00,,2013-07-02 02:33:00,
2013-07-01 19:43:00,77.0,58.0,29.86,WNW,288,0.0,2.0,52,0.00,,,0.00,,2013-07-02 02:43:00,
2013-07-01 19:53:00,77.0,59.0,29.87,West,281,0.0,3.0,53,0.00,,,0.00,,2013-07-02 02:53:00,
2013-07-01 20:01:00,76.0,59.0,29.86,West,281,0.0,2.0,55,0.00,,,0.00,,2013-07-02 03:01:00,
2013-07-01 20:11:00,76.0,59.0,29.86,West,281,0.0,0.0,55,0.00,,,0.00,,2013-07-02 03:11:00,
2013-07-01 20:23:00,75.0,58.0,29.86,West,281,0.0,0.0,56,0.00,,,0.00,,2013-07-02 03:23:00,
2013-07-01 20:32:00,74.0,58.0,29.86,West,281,0.0,0.0,58,0.00,,,0.00,,2013-07-02 03:32:00,
2013-07-01 20:43:00,73.0,57.0,29.86,West,281,0.0,0.0,58,0.00,,,0.00,,2013-07-02 03:43:00,
2013-07-01 20:53:00,73.0,58.0,29.87,West,281,0.0,0.0,60,0.00,,,0.00,,2013-07-02 03:53:00,
2013-07-01 21:01:00,72.0,58.0,29.86,West,281,0.0,0.0,61,0.00,,,0.00,,2013-07-02 04:01:00,
2013-07-01 21:11:00,72.0,58.0,29.86,West,281,0.0,0.0,62,0.00,,,0.00,,2013-07-02 04:11:00,
2013-07-01 21:21:00,71.0,58.0,29.87,West,281,0.0,0.0,63,0.00,,,0.00,,2013-07-02 04:21:00,
2013-07-01 21:32:00,71.0,58.0,29.87,West,281,0.0,0.0,63,0.00,,,0.00,,2013-07-02 04:32:00,
2013-07-01 21:42:00,71.0,58.0,29.87,West,281,0.0,0.0,63,0.00,,,0.00,,2013-07-02 04:42:00,
2013-07-01 21:53:00,70.0,57.0,29.87,West,281,0.0,0.0,64,0.00,,,0.00,,2013-07-02 04:53:00,
2013-07-01 22:01:00,69.0,57.0,29.87,West,281,0.0,0.0,65,0.00,,,0.00,,2013-07-02 05:01:00,
2013-07-01 22:11:00,69.0,58.0,29.88,West,281,0.0,0.0,67,0.00,,,0.00,,2013-07-02 05:11:00,
2013-07-01 22:22:00,69.0,58.0,29.87,West,281,0.0,0.0,67,0.00,,,0.00,,2013-07-02 05:22:00,
2013-07-01 22:32:00,68.0,57.0,29.88,West,281,0.0,0.0,67,0.00,,,0.00,,2013-07-02 05:32:00,
2013-07-01 22:42:00,68.0,57.0,29.88,West,281,0.0,0.0,68,0.00,,,0.00,,2013-07-02 05:42:00,
2013-07-01 22:52:00,68.0,57.0,29.87,West,281,0.0,0.0,68,0.00,,,0.00,,2013-07-02 05:52:00,
2013-07-01 23:01:00,68.0,57.0,29.88,West,281,0.0,0.0,69,0.00,,,0.00,,2013-07-02 06:01:00,
2013-07-01 23:11:00,67.0,57.0,29.89,West,281,0.0,0.0,70,0.00,,,0.00,,2013-07-02 06:11:00,
2013-07-01 23:23:00,67.0,57.0,29.88,West,281,0.0,0.0,70,0.00,,,0.00,,2013-07-02 06:23:00,
2013-07-01 23:33:00,67.0,57.0,29.88,West,281,0.0,0.0,71,0.00,,,0.00,,2013-07-02 06:33:00,
2013-07-01 23:43:00,67.0,57.0,29.88,West,281,0.0,0.0,71,0.00,,,0.00,,2013-07-02 06:43:00,
2013-07-01 23:53:00,66.0,57.0,29.88,West,281,0.0,0.0,72,0.00,,,0.00,,2013-07-02 06:53:00,